| time (UTC) | temp C | wind direction | speed KPH | gust KPH | rain 1hr cm | rain 24hr cm | rain mn cm | humidity % | barometer mb |
| 20260906120603 | 20 | 20 | 3.2 | 4.8 | 0.00 | 0.00 | 0.00 | 99 | 1019.3 |
| 20260906120101 | 20 | 9 | 3.2 | 4.8 | 0.00 | 0.00 | 0.00 | 99 | 1019.3 |
| 20260906115600 | 20 | 357 | 1.6 | 6.4 | 0.00 | 0.00 | 0.00 | 99 | 1019.3 |
| 20260906115056 | 20 | 23 | 3.2 | 4.8 | 0.00 | 0.00 | 0.00 | 99 | 1018.9 |
| 20260906114549 | 20 | 61 | 3.2 | 4.8 | 0.00 | 0.00 | 0.00 | 99 | 1018.9 |
| 20260906114045 | 20 | 54 | 4.8 | 4.8 | 0.00 | 0.00 | 0.00 | 98 | 1019.0 |
| 20260906113544 | 20 | 21 | 3.2 | 6.4 | 0.00 | 0.00 | 0.00 | 98 | 1018.8 |
| 20260906113039 | 20 | 22 | 3.2 | 8.0 | 0.00 | 0.00 | 0.00 | 98 | 1018.9 |
| 20260906112534 | 20 | 31 | 4.8 | 8.0 | 0.00 | 0.00 | 0.00 | 97 | 1018.9 |
| 20260906112031 | 21 | 24 | 4.8 | 6.4 | 0.00 | 0.00 | 0.00 | 97 | 1018.7 |
| 20260906111530 | 21 | 315 | 1.6 | 9.7 | 0.00 | 0.00 | 0.00 | 96 | 1018.6 |
| 20260906111026 | 21 | 18 | 4.8 | 4.8 | 0.00 | 0.00 | 0.00 | 96 | 1018.7 |
| 20260906110525 | 21 | 10 | 1.6 | 8.0 | 0.00 | 0.00 | 0.00 | 96 | 1018.6 |
| 20260906110025 | 21 | 82 | 3.2 | 6.4 | 0.00 | 0.00 | 0.00 | 96 | 1018.6 |
| 20260906105520 | 21 | 28 | 6.4 | 6.4 | 0.00 | 0.00 | 0.00 | 96 | 1018.3 |
| 20260906105016 | 21 | 315 | 0.0 | 6.4 | 0.00 | 0.00 | 0.00 | 96 | 1018.2 |
| 20260906104514 | 21 | 67 | 4.8 | 6.4 | 0.00 | 0.00 | 0.00 | 97 | 1018.5 |
| 20260906104009 | 21 | 29 | 4.8 | 8.0 | 0.00 | 0.00 | 0.00 | 97 | 1018.4 |
| 20260906103508 | 21 | 335 | 3.2 | 6.4 | 0.00 | 0.00 | 0.00 | 97 | 1018.3 |
| 20260906103003 | 21 | 332 | 3.2 | 11.3 | 0.00 | 0.00 | 0.00 | 97 | 1018.2 |
| 20260906102503 | 21 | 358 | 1.6 | 6.4 | 0.00 | 0.00 | 0.00 | 97 | 1018.0 |
| 20260906102002 | 21 | 342 | 3.2 | 6.4 | 0.00 | 0.00 | 0.00 | 98 | 1018.0 |
| 20260906101458 | 21 | 35 | 3.2 | 6.4 | 0.00 | 0.00 | 0.00 | 98 | 1018.0 |
| 20260906100953 | 21 | 330 | 3.2 | 8.0 | 0.00 | 0.00 | 0.00 | 98 | 1017.7 |
| 20260906100448 | 21 | 335 | 1.6 | 11.3 | 0.00 | 0.00 | 0.00 | 98 | 1017.8 |
| 20260906095948 | 21 | 353 | 6.4 | 8.0 | 0.00 | 0.00 | 0.00 | 98 | 1018.0 |
| 20260906095443 | 21 | 356 | 4.8 | 8.0 | 0.00 | 0.00 | 0.00 | 98 | 1018.0 |
| 20260906094938 | 21 | 338 | 4.8 | 8.0 | 0.00 | 0.00 | 0.00 | 98 | 1017.8 |
| 20260906094432 | 21 | 297 | 3.2 | 6.4 | 0.00 | 0.00 | 0.00 | 98 | 1017.7 |
| 20260906093928 | 21 | 321 | 6.4 | 8.0 | 0.00 | 0.00 | 0.00 | 98 | 1017.7 |
| 20260906093425 | 21 | 346 | 8.0 | 11.3 | 0.00 | 0.00 | 0.00 | 98 | 1017.7 |
| 20260906092924 | 21 | 332 | 1.6 | 8.0 | 0.00 | 0.00 | 0.00 | 98 | 1017.7 |
| 20260906092418 | 21 | 341 | 3.2 | 8.0 | 0.00 | 0.00 | 0.00 | 98 | 1017.8 |
| 20260906091914 | 21 | 313 | 1.6 | 8.0 | 0.00 | 0.00 | 0.00 | 98 | 1017.6 |
| 20260906091409 | 21 | 14 | 3.2 | 12.9 | 0.00 | 0.00 | 0.00 | 98 | 1017.7 |
| 20260906090906 | 21 | 327 | 8.0 | 9.7 | 0.00 | 0.00 | 0.00 | 98 | 1018.0 |
| 20260906090406 | 21 | 327 | 4.8 | 8.0 | 0.00 | 0.00 | 0.00 | 98 | 1018.0 |
| 20260906085901 | 21 | 345 | 4.8 | 8.0 | 0.00 | 0.00 | 0.00 | 98 | 1017.6 |
| 20260906085359 | 21 | 7 | 1.6 | 8.0 | 0.00 | 0.00 | 0.00 | 98 | 1017.6 |
| 20260906084854 | 21 | 348 | 8.0 | 9.7 | 0.00 | 0.00 | 0.00 | 98 | 1017.8 |
| 20260906084354 | 21 | 4 | 4.8 | 6.4 | 0.00 | 0.00 | 0.00 | 98 | 1018.0 |
| 20260906083848 | 21 | 301 | 4.8 | 6.4 | 0.00 | 0.00 | 0.00 | 98 | 1018.1 |
| 20260906083344 | 21 | 323 | 6.4 | 6.4 | 0.00 | 0.00 | 0.00 | 98 | 1017.8 |
| 20260906082843 | 21 | 9 | 4.8 | 6.4 | 0.00 | 0.00 | 0.00 | 97 | 1018.0 |
| 20260906082338 | 21 | 128 | 0.0 | 4.8 | 0.00 | 0.00 | 0.00 | 97 | 1018.2 |
| 20260906081834 | 21 | 330 | 4.8 | 4.8 | 0.00 | 0.00 | 0.00 | 97 | 1017.7 |
| 20260906081330 | 21 | 34 | 0.0 | 11.3 | 0.00 | 0.00 | 0.00 | 97 | 1018.1 |
| 20260906080826 | 21 | 53 | 1.6 | 6.4 | 0.00 | 0.00 | 0.00 | 97 | 1017.7 |
| 20260906080322 | 21 | 330 | 1.6 | 6.4 | 0.00 | 0.00 | 0.00 | 97 | 1018.0 |
| 20260906075821 | 21 | 281 | 8.0 | 9.7 | 0.00 | 0.00 | 0.00 | 97 | 1017.8 |
| 20260906075316 | 21 | 290 | 3.2 | 6.4 | 0.00 | 0.00 | 0.00 | 97 | 1018.1 |
| 20260906074812 | 21 | 316 | 1.6 | 6.4 | 0.00 | 0.00 | 0.00 | 97 | 1018.1 |
| 20260906074311 | 21 | 320 | 3.2 | 6.4 | 0.00 | 0.00 | 0.00 | 97 | 1018.2 |
| 20260906073810 | 21 | 321 | 3.2 | 6.4 | 0.00 | 0.00 | 0.00 | 97 | 1018.0 |
| 20260906073305 | 21 | 339 | 3.2 | 8.0 | 0.00 | 0.00 | 0.00 | 97 | 1017.6 |
| 20260906072802 | 21 | 11 | 1.6 | 6.4 | 0.00 | 0.00 | 0.00 | 97 | 1017.6 |
| 20260906072257 | 21 | 345 | 4.8 | 4.8 | 0.00 | 0.00 | 0.00 | 97 | 1017.8 |
| 20260906071753 | 21 | 4 | 1.6 | 9.7 | 0.00 | 0.00 | 0.00 | 97 | 1018.0 |
| 20260906071252 | 21 | 307 | 3.2 | 8.0 | 0.00 | 0.00 | 0.00 | 97 | 1017.8 |
| 20260906070744 | 21 | 333 | 6.4 | 6.4 | 0.00 | 0.00 | 0.00 | 97 | 1018.0 |
| 20260906070239 | 21 | 317 | 4.8 | 9.7 | 0.00 | 0.00 | 0.00 | 97 | 1018.0 |
| 20260906065738 | 21 | 294 | 3.2 | 4.8 | 0.00 | 0.00 | 0.00 | 97 | 1018.3 |
| 20260906065234 | 21 | 294 | 1.6 | 6.4 | 0.00 | 0.00 | 0.00 | 97 | 1018.3 |
| 20260906064730 | 21 | 13 | 4.8 | 6.4 | 0.00 | 0.00 | 0.00 | 97 | 1018.2 |
| 20260906064225 | 21 | 325 | 3.2 | 8.0 | 0.00 | 0.00 | 0.00 | 97 | 1018.4 |
| 20260906063720 | 21 | 358 | 4.8 | 8.0 | 0.00 | 0.00 | 0.00 | 97 | 1018.4 |
| 20260906063215 | 20 | 352 | 3.2 | 6.4 | 0.00 | 0.00 | 0.00 | 97 | 1018.0 |
| 20260906062711 | 20 | 23 | 1.6 | 9.7 | 0.00 | 0.00 | 0.00 | 97 | 1018.3 |
| 20260906062209 | 20 | 345 | 3.2 | 8.0 | 0.00 | 0.00 | 0.00 | 98 | 1018.3 |
| 20260906061706 | 20 | 336 | 6.4 | 6.4 | 0.00 | 0.00 | 0.00 | 98 | 1018.3 |
| 20260906061202 | 20 | 344 | 1.6 | 4.8 | 0.00 | 0.00 | 0.00 | 98 | 1018.4 |
| 20260906060657 | 20 | 346 | 3.2 | 6.4 | 0.00 | 0.00 | 0.00 | 98 | 1018.3 |
| 20260906060154 | 20 | 2 | 3.2 | 4.8 | 0.00 | 0.00 | 0.00 | 98 | 1018.4 |
| 20260906055649 | 20 | 5 | 1.6 | 6.4 | 0.00 | 0.00 | 0.00 | 97 | 1018.3 |
| 20260906055145 | 20 | 346 | 3.2 | 6.4 | 0.00 | 0.00 | 0.00 | 97 | 1018.3 |
| 20260906054640 | 20 | 350 | 3.2 | 4.8 | 0.00 | 0.00 | 0.00 | 97 | 1018.2 |
| 20260906054135 | 20 | 29 | 3.2 | 8.0 | 0.00 | 0.00 | 0.00 | 97 | 1018.1 |
| 20260906053631 | 20 | 331 | 3.2 | 6.4 | 0.00 | 0.00 | 0.00 | 97 | 1017.8 |
| 20260906053126 | 20 | 1 | 6.4 | 9.7 | 0.00 | 0.00 | 0.00 | 97 | 1018.0 |
| 20260906052622 | 20 | 318 | 3.2 | 6.4 | 0.00 | 0.00 | 0.00 | 97 | 1018.0 |
| 20260906052118 | 20 | 336 | 3.2 | 4.8 | 0.00 | 0.00 | 0.00 | 96 | 1018.0 |
| 20260906051614 | 20 | 0 | 0.0 | 4.8 | 0.00 | 0.00 | 0.00 | 96 | 1017.5 |
| 20260906051109 | 20 | 333 | 6.4 | 9.7 | 0.00 | 0.00 | 0.00 | 96 | 1017.6 |
| 20260906050605 | 21 | 352 | 6.4 | 8.0 | 0.00 | 0.00 | 0.00 | 96 | 1017.8 |
| 20260906050100 | 21 | 345 | 4.8 | 9.7 | 0.00 | 0.00 | 0.00 | 96 | 1017.8 |
| 20260906045557 | 21 | 29 | 4.8 | 12.9 | 0.00 | 0.00 | 0.00 | 96 | 1017.8 |
| 20260906045053 | 21 | 22 | 6.4 | 14.5 | 0.00 | 0.00 | 0.00 | 96 | 1017.6 |
| 20260906044549 | 21 | 321 | 6.4 | 9.7 | 0.00 | 0.00 | 0.00 | 97 | 1017.6 |
| 20260906044044 | 21 | 104 | 3.2 | 9.7 | 0.00 | 0.00 | 0.00 | 97 | 1017.5 |
| 20260906043539 | 21 | 2 | 4.8 | 6.4 | 0.00 | 0.00 | 0.00 | 97 | 1017.4 |
| 20260906043036 | 21 | 59 | 3.2 | 8.0 | 0.00 | 0.00 | 0.00 | 97 | 1017.6 |
| 20260906042534 | 21 | 129 | 6.4 | 6.4 | 0.00 | 0.00 | 0.00 | 97 | 1017.4 |
| 20260906042029 | 21 | 327 | 3.2 | 12.9 | 0.00 | 0.00 | 0.00 | 97 | 1017.4 |
| 20260906041526 | 21 | 325 | 6.4 | 8.0 | 0.00 | 0.00 | 0.00 | 97 | 1017.2 |
| 20260906041025 | 21 | 346 | 3.2 | 12.9 | 0.00 | 0.00 | 0.00 | 97 | 1017.3 |
| 20260906040520 | 21 | 335 | 6.4 | 9.7 | 0.00 | 0.00 | 0.00 | 97 | 1017.4 |
| 20260906040016 | 21 | 32 | 4.8 | 8.0 | 0.00 | 0.00 | 0.00 | 97 | 1017.1 |
| 20260906035505 | 21 | 271 | 3.2 | 8.0 | 0.00 | 0.00 | 0.00 | 97 | 1017.2 |
| 20260906035001 | 21 | 52 | 1.6 | 8.0 | 0.00 | 0.00 | 0.00 | 97 | 1017.2 |
| 20260906034500 | 21 | 14 | 3.2 | 8.0 | 0.00 | 0.00 | 0.00 | 97 | 1017.4 |
| 20260906033955 | 21 | 11 | 3.2 | 6.4 | 0.00 | 0.00 | 0.00 | 96 | 1017.2 |
| 20260906033450 | 21 | 355 | 3.2 | 8.0 | 0.00 | 0.00 | 0.00 | 96 | 1017.1 |
| 20260906032946 | 21 | 347 | 3.2 | 6.4 | 0.00 | 0.00 | 0.00 | 96 | 1017.3 |
| 20260906032443 | 22 | 1 | 3.2 | 9.7 | 0.00 | 0.00 | 0.00 | 96 | 1017.1 |
| 20260906031937 | 22 | 299 | 0.0 | 4.8 | 0.00 | 0.00 | 0.00 | 95 | 1017.2 |
| 20260906031432 | 22 | 336 | 3.2 | 4.8 | 0.00 | 0.00 | 0.00 | 95 | 1017.0 |
| 20260906030927 | 22 | 30 | 3.2 | 6.4 | 0.00 | 0.00 | 0.00 | 95 | 1017.2 |
| 20260906030422 | 22 | 328 | 3.2 | 6.4 | 0.00 | 0.00 | 0.00 | 94 | 1017.1 |
| 20260906025917 | 22 | 344 | 3.2 | 3.2 | 0.00 | 0.00 | 0.00 | 94 | 1017.2 |
| 20260906025411 | 22 | 266 | 0.0 | 8.0 | 0.00 | 0.00 | 0.00 | 94 | 1016.9 |
| 20260906024910 | 22 | 48 | 3.2 | 9.7 | 0.00 | 0.00 | 0.00 | 94 | 1017.1 |
| 20260906024409 | 22 | 8 | 0.0 | 8.0 | 0.00 | 0.00 | 0.00 | 93 | 1017.0 |
| 20260906023905 | 22 | 336 | 6.4 | 6.4 | 0.00 | 0.00 | 0.00 | 93 | 1016.9 |
| 20260906023401 | 23 | 296 | 0.0 | 6.4 | 0.00 | 0.00 | 0.00 | 92 | 1016.9 |
| 20260906022901 | 23 | 339 | 4.8 | 6.4 | 0.00 | 0.00 | 0.00 | 92 | 1016.7 |
| 20260906022355 | 23 | 40 | 3.2 | 9.7 | 0.00 | 0.00 | 0.00 | 91 | 1016.7 |
| 20260906021851 | 23 | 331 | 0.0 | 9.7 | 0.00 | 0.00 | 0.00 | 91 | 1016.6 |
| 20260906021350 | 23 | 30 | 3.2 | 6.4 | 0.00 | 0.00 | 0.00 | 91 | 1016.5 |
| 20260906020845 | 23 | 6 | 1.6 | 9.7 | 0.00 | 0.00 | 0.00 | 91 | 1016.6 |
| 20260906020345 | 23 | 307 | 8.0 | 11.3 | 0.00 | 0.00 | 0.00 | 91 | 1016.7 |
| 20260906015840 | 23 | 37 | 3.2 | 8.0 | 0.00 | 0.00 | 0.00 | 90 | 1016.6 |
| 20260906015338 | 24 | 344 | 1.6 | 6.4 | 0.00 | 0.00 | 0.00 | 90 | 1016.5 |
| 20260906014833 | 24 | 333 | 3.2 | 6.4 | 0.00 | 0.00 | 0.00 | 89 | 1016.5 |
| 20260906014328 | 25 | 323 | 3.2 | 6.4 | 0.00 | 0.00 | 0.00 | 88 | 1016.4 |
| 20260906013824 | 25 | 17 | 3.2 | 9.7 | 0.00 | 0.00 | 0.00 | 88 | 1016.5 |
| 20260906013319 | 25 | 343 | 11.3 | 12.9 | 0.00 | 0.00 | 0.00 | 88 | 1016.3 |
| 20260906012814 | 25 | 333 | 6.4 | 9.7 | 0.00 | 0.00 | 0.00 | 89 | 1016.4 |
| 20260906012309 | 25 | 323 | 9.7 | 9.7 | 0.00 | 0.00 | 0.00 | 89 | 1016.3 |
| 20260906011804 | 25 | 24 | 3.2 | 9.7 | 0.00 | 0.00 | 0.00 | 88 | 1016.2 |
| 20260906011303 | 25 | 351 | 6.4 | 9.7 | 0.00 | 0.00 | 0.00 | 88 | 1016.1 |
| 20260906010759 | 25 | 11 | 3.2 | 11.3 | 0.00 | 0.00 | 0.00 | 87 | 1016.0 |
| 20260906010256 | 25 | 33 | 6.4 | 12.9 | 0.00 | 0.00 | 0.00 | 87 | 1016.0 |
| 20260906005751 | 25 | 17 | 6.4 | 14.5 | 0.00 | 0.00 | 0.00 | 87 | 1015.8 |
| 20260906005250 | 26 | 331 | 4.8 | 8.0 | 0.00 | 0.00 | 0.00 | 87 | 1016.1 |
| 20260906004749 | 26 | 51 | 3.2 | 9.7 | 0.00 | 0.00 | 0.00 | 87 | 1015.8 |
| 20260906004244 | 26 | 11 | 3.2 | 11.3 | 0.00 | 0.00 | 0.00 | 86 | 1015.9 |
| 20260906003739 | 26 | 349 | 4.8 | 14.5 | 0.00 | 0.00 | 0.00 | 85 | 1015.8 |
| 20260906003235 | 26 | 339 | 6.4 | 8.0 | 0.00 | 0.00 | 0.00 | 85 | 1015.8 |
| 20260906002734 | 26 | 344 | 3.2 | 9.7 | 0.00 | 0.00 | 0.00 | 85 | 1015.7 |
| 20260906002229 | 27 | 328 | 0.0 | 6.4 | 0.00 | 0.00 | 0.00 | 84 | 1015.6 |
| 20260906001725 | 27 | 331 | 4.8 | 12.9 | 0.00 | 0.00 | 0.00 | 83 | 1015.6 |
| 20260906001220 | 27 | 325 | 4.8 | 11.3 | 0.00 | 0.00 | 0.00 | 83 | 1015.5 |
| 20260906000715 | 27 | 297 | 4.8 | 9.7 | 0.00 | 0.00 | 0.00 | 82 | 1015.5 |
| 20260906000212 | 28 | 327 | 1.6 | 8.0 | 0.00 | 0.00 | 0.00 | 81 | 1015.2 |
| 20260905235709 | 28 | 309 | 3.2 | 6.4 | 0.00 | 0.00 | 0.00 | 81 | 1015.5 |
| 20260905235204 | 28 | 13 | 4.8 | 8.0 | 0.00 | 0.00 | 0.00 | 80 | 1015.2 |
| 20260905234700 | 28 | 313 | 1.6 | 6.4 | 0.00 | 0.00 | 0.00 | 80 | 1015.3 |
| 20260905234155 | 28 | 343 | 6.4 | 8.0 | 0.00 | 0.00 | 0.00 | 79 | 1015.3 |
| 20260905233650 | 29 | 330 | 0.0 | 8.0 | 0.00 | 0.00 | 0.00 | 78 | 1015.2 |
| 20260905233149 | 30 | 350 | 3.2 | 9.7 | 0.00 | 0.00 | 0.00 | 77 | 1015.5 |
| 20260905232645 | 30 | 350 | 4.8 | 8.0 | 0.00 | 0.00 | 0.00 | 76 | 1015.3 |
| 20260905232140 | 30 | 344 | 6.4 | 11.3 | 0.00 | 0.00 | 0.00 | 75 | 1015.4 |
| 20260905231635 | 30 | 10 | 3.2 | 12.9 | 0.00 | 0.00 | 0.00 | 77 | 1015.1 |
| 20260905231131 | 30 | 346 | 8.0 | 9.7 | 0.00 | 0.00 | 0.00 | 77 | 1015.2 |
| 20260905230627 | 30 | 346 | 8.0 | 12.9 | 0.00 | 0.00 | 0.00 | 76 | 1015.1 |
| 20260905230125 | 30 | 301 | 1.6 | 8.0 | 0.00 | 0.00 | 0.00 | 75 | 1015.1 |
| 20260905225618 | 30 | 294 | 3.2 | 6.4 | 0.00 | 0.00 | 0.00 | 74 | 1015.1 |
| 20260905225113 | 30 | 307 | 8.0 | 9.7 | 0.00 | 0.00 | 0.00 | 73 | 1015.0 |
| 20260905224608 | 30 | 304 | 8.0 | 9.7 | 0.00 | 0.00 | 0.00 | 73 | 1014.8 |
| 20260905224107 | 31 | 0 | 3.2 | 8.0 | 0.00 | 0.00 | 0.00 | 74 | 1015.1 |
| 20260905223605 | 31 | 339 | 1.6 | 14.5 | 0.00 | 0.00 | 0.00 | 73 | 1015.3 |
| 20260905223101 | 31 | 33 | 3.2 | 8.0 | 0.00 | 0.00 | 0.00 | 74 | 1015.2 |
| 20260905222601 | 31 | 314 | 3.2 | 14.5 | 0.00 | 0.00 | 0.00 | 72 | 1015.1 |
| 20260905222056 | 31 | 350 | 8.0 | 14.5 | 0.00 | 0.00 | 0.00 | 72 | 1015.0 |
| 20260905221552 | 31 | 251 | 3.2 | 16.1 | 0.00 | 0.00 | 0.00 | 72 | 1015.3 |
| 20260905221048 | 31 | 316 | 9.7 | 11.3 | 0.00 | 0.00 | 0.00 | 71 | 1015.0 |
| 20260905220543 | 31 | 334 | 4.8 | 11.3 | 0.00 | 0.00 | 0.00 | 73 | 1015.0 |
| 20260905220040 | 31 | 310 | 4.8 | 11.3 | 0.00 | 0.00 | 0.00 | 72 | 1015.1 |
| 20260905215539 | 31 | 332 | 4.8 | 9.7 | 0.00 | 0.00 | 0.00 | 73 | 1015.2 |
| 20260905215035 | 31 | 327 | 9.7 | 14.5 | 0.00 | 0.00 | 0.00 | 71 | 1014.9 |
| 20260905214531 | 31 | 167 | 1.6 | 11.3 | 0.00 | 0.00 | 0.00 | 72 | 1015.0 |
| 20260905214026 | 31 | 342 | 8.0 | 14.5 | 0.00 | 0.00 | 0.00 | 71 | 1014.7 |
| 20260905213521 | 31 | 303 | 6.4 | 6.4 | 0.00 | 0.00 | 0.00 | 73 | 1014.8 |
| 20260905213017 | 32 | 304 | 3.2 | 11.3 | 0.00 | 0.00 | 0.00 | 71 | 1015.0 |
| 20260905212511 | 32 | 341 | 4.8 | 8.0 | 0.00 | 0.00 | 0.00 | 71 | 1014.9 |
| 20260905212010 | 31 | 335 | 3.2 | 9.7 | 0.00 | 0.00 | 0.00 | 72 | 1015.0 |
| 20260905211506 | 32 | 347 | 3.2 | 12.9 | 0.00 | 0.00 | 0.00 | 71 | 1015.0 |
| 20260905211002 | 32 | 328 | 8.0 | 14.5 | 0.00 | 0.00 | 0.00 | 70 | 1015.0 |
| 20260905210457 | 32 | 327 | 8.0 | 8.0 | 0.00 | 0.00 | 0.00 | 70 | 1015.1 |
| 20260905205956 | 31 | 297 | 3.2 | 8.0 | 0.00 | 0.00 | 0.00 | 73 | 1015.3 |
| 20260905205451 | 32 | 332 | 3.2 | 11.3 | 0.00 | 0.00 | 0.00 | 72 | 1015.2 |
| 20260905204950 | 32 | 6 | 4.8 | 9.7 | 0.00 | 0.00 | 0.00 | 69 | 1015.2 |
| 20260905203945 | 32 | 351 | 6.4 | 8.0 | 0.00 | 0.00 | 0.00 | 69 | 1015.3 |
| 20260905203441 | 33 | 348 | 6.4 | 12.9 | 0.00 | 0.00 | 0.00 | 66 | 1015.2 |
| 20260905202936 | 33 | 44 | 6.4 | 6.4 | 0.00 | 0.00 | 0.00 | 68 | 1015.2 |
| 20260905202431 | 33 | 329 | 3.2 | 4.8 | 0.00 | 0.00 | 0.00 | 68 | 1015.3 |
| 20260905201927 | 32 | 329 | 6.4 | 12.9 | 0.00 | 0.00 | 0.00 | 68 | 1015.0 |
| 20260905201422 | 32 | 343 | 3.2 | 14.5 | 0.00 | 0.00 | 0.00 | 69 | 1015.1 |
| 20260905200921 | 34 | 320 | 8.0 | 8.0 | 0.00 | 0.00 | 0.00 | 69 | 1015.2 |
| 20260905200418 | 33 | 269 | 1.6 | 4.8 | 0.00 | 0.00 | 0.00 | 69 | 1015.3 |
| 20260905195915 | 32 | 326 | 3.2 | 6.4 | 0.00 | 0.00 | 0.00 | 69 | 1015.4 |
| 20260905195411 | 32 | 345 | 3.2 | 8.0 | 0.00 | 0.00 | 0.00 | 70 | 1015.5 |
| 20260905194907 | 33 | 308 | 3.2 | 9.7 | 0.00 | 0.00 | 0.00 | 72 | 1015.4 |
| 20260905194405 | 33 | 310 | 3.2 | 6.4 | 0.00 | 0.00 | 0.00 | 69 | 1015.2 |
| 20260905193900 | 33 | 317 | 4.8 | 6.4 | 0.00 | 0.00 | 0.00 | 69 | 1015.3 |
| 20260905193355 | 32 | 342 | 8.0 | 9.7 | 0.00 | 0.00 | 0.00 | 71 | 1015.3 |
| 20260905192850 | 32 | 329 | 3.2 | 6.4 | 0.00 | 0.00 | 0.00 | 72 | 1015.3 |
| 20260905192346 | 32 | 330 | 4.8 | 12.9 | 0.00 | 0.00 | 0.00 | 72 | 1015.5 |
| 20260905191846 | 33 | 345 | 4.8 | 12.9 | 0.00 | 0.00 | 0.00 | 67 | 1015.6 |
| 20260905191345 | 33 | 328 | 9.7 | 9.7 | 0.00 | 0.00 | 0.00 | 67 | 1015.5 |
| 20260905190843 | 33 | 323 | 3.2 | 9.7 | 0.00 | 0.00 | 0.00 | 70 | 1015.7 |
| 20260905190337 | 33 | 6 | 4.8 | 6.4 | 0.00 | 0.00 | 0.00 | 69 | 1015.6 |
| 20260905185835 | 33 | 338 | 3.2 | 6.4 | 0.00 | 0.00 | 0.00 | 72 | 1015.4 |
| 20260905185331 | 32 | 305 | 3.2 | 6.4 | 0.00 | 0.00 | 0.00 | 72 | 1015.7 |
| 20260905184829 | 34 | 304 | 3.2 | 4.8 | 0.00 | 0.00 | 0.00 | 68 | 1015.7 |
| 20260905184330 | 34 | 288 | 0.0 | 4.8 | 0.00 | 0.00 | 0.00 | 67 | 1015.9 |
| 20260905183828 | 33 | 5 | 3.2 | 9.7 | 0.00 | 0.00 | 0.00 | 69 | 1016.0 |
| 20260905183324 | 32 | 332 | 6.4 | 8.0 | 0.00 | 0.00 | 0.00 | 71 | 1015.7 |
| 20260905182824 | 33 | 338 | 4.8 | 9.7 | 0.00 | 0.00 | 0.00 | 70 | 1015.8 |
| 20260905182323 | 33 | 346 | 4.8 | 8.0 | 0.00 | 0.00 | 0.00 | 67 | 1015.9 |
| 20260905181819 | 34 | 354 | 4.8 | 9.7 | 0.00 | 0.00 | 0.00 | 68 | 1015.8 |
| 20260905181313 | 35 | 340 | 9.7 | 9.7 | 0.00 | 0.00 | 0.00 | 65 | 1016.1 |
| 20260905180812 | 35 | 315 | 3.2 | 8.0 | 0.00 | 0.00 | 0.00 | 66 | 1016.0 |
| 20260905180307 | 34 | 1 | 4.8 | 8.0 | 0.00 | 0.00 | 0.00 | 64 | 1016.0 |
| 20260905175803 | 35 | 302 | 4.8 | 9.7 | 0.00 | 0.00 | 0.00 | 67 | 1016.0 |
| 20260905175257 | 34 | 332 | 3.2 | 4.8 | 0.00 | 0.00 | 0.00 | 64 | 1016.1 |
| 20260905174752 | 33 | 244 | 3.2 | 9.7 | 0.00 | 0.00 | 0.00 | 68 | 1016.2 |
| 20260905174248 | 33 | 341 | 6.4 | 9.7 | 0.00 | 0.00 | 0.00 | 66 | 1016.1 |
| 20260905173744 | 33 | 331 | 9.7 | 17.7 | 0.00 | 0.00 | 0.00 | 67 | 1016.2 |
| 20260905173239 | 34 | 269 | 0.0 | 6.4 | 0.00 | 0.00 | 0.00 | 68 | 1016.2 |
| 20260905172733 | 34 | 320 | 4.8 | 8.0 | 0.00 | 0.00 | 0.00 | 67 | 1016.3 |
| 20260905172232 | 34 | 321 | 9.7 | 11.3 | 0.00 | 0.00 | 0.00 | 66 | 1016.2 |
| 20260905171729 | 33 | 284 | 1.6 | 4.8 | 0.00 | 0.00 | 0.00 | 68 | 1016.2 |
| 20260905171224 | 35 | 344 | 4.8 | 8.0 | 0.00 | 0.00 | 0.00 | 64 | 1016.1 |
| 20260905170716 | 35 | 309 | 6.4 | 8.0 | 0.00 | 0.00 | 0.00 | 63 | 1016.2 |
| 20260905170215 | 35 | 257 | 3.2 | 4.8 | 0.00 | 0.00 | 0.00 | 65 | 1016.4 |
| 20260905165710 | 34 | 0 | 4.8 | 6.4 | 0.00 | 0.00 | 0.00 | 63 | 1016.2 |
| 20260905165205 | 34 | 344 | 9.7 | 11.3 | 0.00 | 0.00 | 0.00 | 65 | 1016.3 |
| 20260905164659 | 34 | 313 | 3.2 | 6.4 | 0.00 | 0.00 | 0.00 | 64 | 1016.4 |
| 20260905164159 | 35 | 310 | 3.2 | 6.4 | 0.00 | 0.00 | 0.00 | 65 | 1016.3 |
| 20260905163655 | 34 | 257 | 3.2 | 4.8 | 0.00 | 0.00 | 0.00 | 64 | 1016.7 |
| 20260905163151 | 34 | 359 | 9.7 | 9.7 | 0.00 | 0.00 | 0.00 | 62 | 1016.3 |
| 20260905162647 | 33 | 333 | 3.2 | 9.7 | 0.00 | 0.00 | 0.00 | 65 | 1016.3 |
| 20260905162147 | 33 | 261 | 4.8 | 4.8 | 0.00 | 0.00 | 0.00 | 65 | 1016.3 |
| 20260905161647 | 33 | 250 | 1.6 | 6.4 | 0.00 | 0.00 | 0.00 | 64 | 1016.3 |
| 20260905161144 | 34 | 335 | 3.2 | 4.8 | 0.00 | 0.00 | 0.00 | 65 | 1016.5 |
| 20260905160639 | 33 | 238 | 3.2 | 6.4 | 0.00 | 0.00 | 0.00 | 64 | 1016.4 |
| 20260905160132 | 35 | 233 | 3.2 | 3.2 | 0.00 | 0.00 | 0.00 | 62 | 1016.3 |
| 20260905155627 | 34 | 339 | 1.6 | 4.8 | 0.00 | 0.00 | 0.00 | 64 | 1016.2 |
| 20260905155125 | 34 | 251 | 3.2 | 4.8 | 0.00 | 0.00 | 0.00 | 64 | 1016.2 |
| 20260905154620 | 33 | 246 | 3.2 | 9.7 | 0.00 | 0.00 | 0.00 | 64 | 1016.2 |
| 20260905154116 | 33 | 316 | 3.2 | 6.4 | 0.00 | 0.00 | 0.00 | 66 | 1016.2 |
| 20260905153612 | 33 | 310 | 4.8 | 9.7 | 0.00 | 0.00 | 0.00 | 64 | 1016.4 |
| 20260905153107 | 33 | 289 | 3.2 | 8.0 | 0.00 | 0.00 | 0.00 | 68 | 1016.1 |
| 20260905152602 | 33 | 255 | 1.6 | 8.0 | 0.00 | 0.00 | 0.00 | 68 | 1016.2 |
| 20260905152056 | 33 | 249 | 0.0 | 3.2 | 0.00 | 0.00 | 0.00 | 67 | 1016.3 |
| 20260905151551 | 33 | 239 | 6.4 | 8.0 | 0.00 | 0.00 | 0.00 | 66 | 1016.2 |
| 20260905151047 | 32 | 234 | 6.4 | 9.7 | 0.00 | 0.00 | 0.00 | 68 | 1016.2 |
| 20260905150542 | 32 | 251 | 4.8 | 9.7 | 0.00 | 0.00 | 0.00 | 70 | 1016.4 |
| 20260905150040 | 32 | 230 | 8.0 | 11.3 | 0.00 | 0.00 | 0.00 | 69 | 1016.1 |
| 20260905145533 | 32 | 213 | 1.6 | 4.8 | 0.00 | 0.00 | 0.00 | 71 | 1016.2 |
| 20260905145033 | 31 | 221 | 0.0 | 4.8 | 0.00 | 0.00 | 0.00 | 75 | 1016.1 |
| 20260905144528 | 31 | 280 | 3.2 | 6.4 | 0.00 | 0.00 | 0.00 | 74 | 1016.1 |
| 20260905144027 | 31 | 233 | 4.8 | 4.8 | 0.00 | 0.00 | 0.00 | 75 | 1015.9 |
| 20260905143526 | 31 | 228 | 4.8 | 6.4 | 0.00 | 0.00 | 0.00 | 73 | 1015.9 |
| 20260905143021 | 31 | 275 | 3.2 | 6.4 | 0.00 | 0.00 | 0.00 | 76 | 1015.9 |
| 20260905142520 | 30 | 240 | 3.2 | 6.4 | 0.00 | 0.00 | 0.00 | 77 | 1015.9 |
| 20260905142015 | 30 | 209 | 4.8 | 8.0 | 0.00 | 0.00 | 0.00 | 77 | 1016.0 |
| 20260905141515 | 30 | 240 | 3.2 | 4.8 | 0.00 | 0.00 | 0.00 | 79 | 1016.0 |
| 20260905141012 | 30 | 232 | 4.8 | 6.4 | 0.00 | 0.00 | 0.00 | 79 | 1015.9 |
| 20260905140506 | 29 | 238 | 3.2 | 6.4 | 0.00 | 0.00 | 0.00 | 80 | 1016.2 |
| 20260905140005 | 29 | 235 | 3.2 | 6.4 | 0.00 | 0.00 | 0.00 | 81 | 1016.0 |
| 20260905135501 | 28 | 237 | 4.8 | 4.8 | 0.00 | 0.00 | 0.00 | 82 | 1016.1 |
| 20260905134956 | 28 | 240 | 4.8 | 6.4 | 0.00 | 0.00 | 0.00 | 83 | 1016.1 |
| 20260905134455 | 28 | 237 | 4.8 | 4.8 | 0.00 | 0.00 | 0.00 | 85 | 1016.0 |
| 20260905133954 | 27 | 242 | 3.2 | 6.4 | 0.00 | 0.00 | 0.00 | 85 | 1016.3 |
| 20260905133450 | 28 | 253 | 3.2 | 4.8 | 0.00 | 0.00 | 0.00 | 84 | 1016.2 |
| 20260905132943 | 27 | 227 | 4.8 | 6.4 | 0.00 | 0.00 | 0.00 | 84 | 1016.0 |
| 20260905132438 | 27 | 233 | 4.8 | 6.4 | 0.00 | 0.00 | 0.00 | 85 | 1015.9 |
| 20260905131934 | 27 | 257 | 3.2 | 6.4 | 0.00 | 0.00 | 0.00 | 86 | 1016.1 |
| 20260905131430 | 27 | 234 | 6.4 | 8.0 | 0.00 | 0.00 | 0.00 | 85 | 1015.8 |
| 20260905130930 | 26 | 255 | 3.2 | 6.4 | 0.00 | 0.00 | 0.00 | 88 | 1016.1 |
| 20260905130429 | 26 | 239 | 3.2 | 6.4 | 0.00 | 0.00 | 0.00 | 88 | 1015.8 |
| 20260905125929 | 26 | 241 | 4.8 | 4.8 | 0.00 | 0.00 | 0.00 | 90 | 1015.7 |
| 20260905125424 | 26 | 249 | 6.4 | 6.4 | 0.00 | 0.00 | 0.00 | 90 | 1016.0 |
| 20260905124919 | 26 | 231 | 3.2 | 6.4 | 0.00 | 0.00 | 0.00 | 91 | 1015.9 |
| 20260905124416 | 26 | 265 | 1.6 | 4.8 | 0.00 | 0.00 | 0.00 | 90 | 1015.9 |
| 20260905123916 | 25 | 245 | 3.2 | 4.8 | 0.00 | 0.00 | 0.00 | 91 | 1015.7 |
| 20260905123413 | 25 | 285 | 3.2 | 6.4 | 0.00 | 0.00 | 0.00 | 92 | 1015.7 |
| 20260905122908 | 25 | 239 | 3.2 | 4.8 | 0.00 | 0.00 | 0.00 | 92 | 1015.6 |
| 20260905122407 | 25 | 243 | 3.2 | 4.8 | 0.00 | 0.00 | 0.00 | 93 | 1015.5 |
| 20260905121903 | 24 | 239 | 3.2 | 4.8 | 0.00 | 0.00 | 0.00 | 95 | 1015.6 |
| 20260905121358 | 24 | 265 | 3.2 | 8.0 | 0.00 | 0.00 | 0.00 | 97 | 1015.5 |